カタログに戻る

COSMOS 970 DEB

運用中LEO
NORAD 18998·DEBRIS·🇷🇺 Russia

打ち上げ Dec 21, 1977 から Baikonur Cosmodrome

Loading…

次のパス (今後24時間)

TLE

経年Source: Space-Track

元期: Sep 12, 2026, 06:29 UTC

1 18998U 77121BS  26255.27050123  .00000295  00000-0  35743-3 0  9994
2 18998  65.8253 190.6862 0116843  78.0001  72.4295 13.77654285952651

AllMySatでCOSMOS 970 DEBをリアルタイム追跡

Download on the App Store